CW4150 Weather Reports


time (UTC)temp
F
wind
direction
speed
knots
gust
knots
rain 1hr
in
rain 24hr
in
rain mn
in
humidity
%
barometer
mb
20260507041005 48 193 0.0 3.5 0.00 0.67 0.29 92 1012.4
20260507040504 48 227 0.0 1.7 0.00 0.67 0.29 92 1012.3
20260507040014 48 229 0.0 1.7 0.00 0.66 0.29 92 1012.4
20260507035504 48 245 0.0 1.7 0.00 0.66 0.29 92 1012.4
20260507035004 48 245 0.0 1.7 0.00 0.66 0.29 92 1012.2
20260507034504 48 217 0.9 1.7 0.00 0.66 0.29 92 1012.2
20260507034004 48 219 0.0 0.9 0.00 0.66 0.29 92 1012.2
20260507033504 48 237 0.0 0.9 0.00 0.66 0.29 92 1012.1
20260507033013 49 223 0.0 1.7 0.02 0.67 0.29 92 1011.6
20260507033005 48 242 0.0 0.9 0.00 0.66 0.29 92 1012.1
20260507032504 48 243 0.0 0.9 0.00 0.66 0.29 92 1012.0
20260507032003 48 243 0.0 1.7 0.00 0.66 0.29 92 1011.9
20260507031509 48 239 0.0 1.7 0.00 0.66 0.29 92 1011.9
20260507031004 48 237 0.0 0.9 0.00 0.66 0.29 92 1011.8
20260507030507 48 222 0.0 1.7 0.01 0.66 0.29 92 1011.8
20260507030018 48 222 0.0 1.7 0.01 0.66 0.29 92 1011.7
20260507030013 49 228 0.0 2.6 0.01 0.66 0.28 92 1011.5
20260507025505 48 235 0.9 1.7 0.01 0.66 0.29 91 1011.7
20260507025004 48 236 0.9 1.7 0.01 0.66 0.29 91 1011.7
20260507024522 48 215 0.0 0.9 0.01 0.66 0.29 91 1011.7
20260507024004 48 203 0.0 1.7 0.01 0.66 0.29 91 1011.7
20260507023505 48 239 0.0 1.7 0.00 0.66 0.28 91 1011.7
20260507023017 48 211 0.0 0.9 0.00 0.66 0.28 91 1011.6
20260507023013 49 232 0.0 2.6 0.01 0.65 0.28 92 1011.2
20260507022504 48 211 0.0 0.9 0.00 0.66 0.28 91 1011.6
20260507022004 48 204 0.0 0.9 0.00 0.66 0.28 91 1011.5
20260507021503 48 204 0.0 0.9 0.01 0.66 0.28 91 1011.5
20260507021003 48 224 0.0 1.7 0.01 0.66 0.28 91 1011.4
20260507020504 48 236 0.9 1.7 0.00 0.65 0.27 91 1011.4
20260507020012 49 224 0.0 1.7 0.02 0.65 0.28 92 1010.8
20260507020007 48 232 0.0 2.6 0.00 0.65 0.27 91 1011.3
20260507015508 48 232 0.0 2.6 0.00 0.65 0.27 91 1011.3
20260507015004 48 216 0.0 3.5 0.01 0.65 0.27 91 1011.2
20260507014514 48 245 0.0 3.5 0.01 0.65 0.27 91 1011.2
20260507014008 49 205 1.7 3.5 0.01 0.65 0.27 91 1011.2
20260507013504 49 254 0.0 2.6 0.02 0.65 0.27 92 1011.1
20260507013016 49 257 0.0 2.6 0.02 0.65 0.27 91 1011.0
20260507012506 49 236 0.0 0.9 0.02 0.65 0.27 92 1011.1
20260507012010 49 210 0.0 0.9 0.02 0.65 0.27 92 1011.1
20260507011523 49 217 0.0 3.5 0.02 0.64 0.26 92 1011.0
20260507011009 49 217 0.0 3.5 0.02 0.64 0.26 92 1011.0
20260507010504 49 244 0.9 1.7 0.02 0.64 0.26 92 1011.0
20260507010012 50 257 0.9 2.6 0.04 0.63 0.25 92 1010.7
20260507010008 49 238 0.0 0.9 0.02 0.64 0.26 92 1010.9
20260507005504 49 233 0.0 0.9 0.03 0.64 0.26 92 1010.9
20260507005009 49 233 0.0 0.9 0.02 0.63 0.25 92 1010.9
20260507004507 49 222 0.0 0.9 0.03 0.63 0.25 92 1010.9
20260507004005 50 258 0.0 1.7 0.03 0.63 0.25 92 1010.9
20260507003505 50 258 0.0 1.7 0.03 0.62 0.25 92 1010.9
20260507003012 50 217 0.0 1.7 0.09 0.62 0.24 92 1010.6
20260507003010 50 244 0.0 0.9 0.03 0.62 0.25 92 1010.8
20260507002505 50 245 0.0 0.9 0.04 0.62 0.25 92 1010.8
20260507002006 50 245 0.0 0.9 0.05 0.62 0.25 92 1010.8
20260507001518 50 219 0.0 0.9 0.06 0.62 0.24 92 1010.8
20260507001007 50 219 0.0 0.9 0.07 0.62 0.24 92 1010.8
20260507000506 50 219 0.0 0.9 0.08 0.62 0.24 92 1010.8
20260507000020 50 219 0.0 0.9 0.10 0.62 0.24 92 1010.8
20260506235509 50 219 0.0 0.9 0.10 0.61 0.23 92 1010.7
20260506235006 50 219 0.0 0.9 0.11 0.61 0.23 92 1010.8
20260506234508 50 219 0.0 0.9 0.12 0.60 0.22 92 1010.8
20260506234004 50 219 0.0 0.9 0.13 0.59 0.22 92 1010.9
20260506233507 50 219 0.0 2.6 0.13 0.59 0.21 92 1010.9
20260506233012 50 252 0.0 2.6 0.14 0.59 0.21 91 1010.9
20260506232504 50 215 0.0 1.7 0.15 0.58 0.20 91 1010.9
20260506232007 50 255 0.0 1.7 0.15 0.57 0.19 91 1010.8
20260506231516 50 227 0.0 0.9 0.14 0.55 0.18 91 1010.8
20260506231008 50 227 0.0 1.7 0.14 0.54 0.16 91 1010.8
20260506230506 51 228 0.0 1.7 0.14 0.53 0.15 91 1010.7
20260506230024 51 242 0.0 1.7 0.14 0.51 0.14 91 1010.7
20260506230011 51 239 0.9 6.1 0.17 0.45 0.07 91 1010.3
20260506225507 51 252 0.9 1.7 0.14 0.51 0.13 91 1010.7
20260506225007 51 211 0.0 1.7 0.14 0.49 0.11 91 1010.7
20260506224520 51 219 0.0 2.6 0.14 0.48 0.10 91 1010.6
20260506224006 51 233 0.0 2.6 0.14 0.46 0.08 91 1010.6
20260506223507 51 231 0.9 3.5 0.16 0.45 0.07 91 1010.6
20260506223011 51 248 2.6 7.8 0.21 0.38 0.00 91 1010.0
20260506223006 51 200 1.7 3.5 0.17 0.44 0.06 91 1010.5
20260506222504 51 229 1.7 3.5 0.18 0.42 0.04 91 1010.5
20260506222006 51 238 0.9 6.1 0.20 0.41 0.03 91 1010.4
20260506221509 51 242 0.9 6.1 0.20 0.40 0.03 91 1010.4
20260506221003 51 241 0.0 4.3 0.20 0.39 0.01 91 1010.3
20260506220503 51 235 1.7 4.3 0.21 0.38 0.00 91 1010.2
20260506220017 51 216 0.9 7.8 0.21 0.37 0.00 91 1010.2
20260506220011 52 244 3.5 8.7 0.20 0.28 0.28 91 1009.9
20260506215505 51 217 1.7 7.8 0.21 0.36 0.36 91 1010.2
20260506215006 51 227 0.9 4.3 0.22 0.35 0.35 91 1010.2
20260506214520 51 265 1.7 4.3 0.23 0.33 0.33 91 1010.3
20260506214009 51 233 0.9 4.3 0.22 0.31 0.31 91 1010.2
20260506213507 51 239 1.7 5.2 0.20 0.29 0.29 91 1010.1
20260506213024 51 266 1.7 6.1 0.18 0.26 0.26 90 1010.1
20260506212507 52 226 0.9 6.1 0.16 0.23 0.23 91 1010.0
20260506212011 52 237 2.6 7.0 0.14 0.21 0.21 90 1009.9
20260506211530 52 250 2.6 7.8 0.14 0.20 0.20 91 1009.9
20260506211003 52 226 2.6 7.8 0.14 0.18 0.18 90 1009.7
20260506210504 52 230 0.9 3.5 0.13 0.17 0.17 90 1009.6
20260506210011 53 232 3.5 7.8 0.06 0.09 0.08 90 1009.3
20260506210009 52 219 0.9 4.3 0.12 0.16 0.16 90 1009.5
20260506205504 52 210 1.7 4.3 0.11 0.15 0.14 90 1009.7
20260506205004 52 252 1.7 3.5 0.09 0.13 0.12 90 1009.6
20260506204518 52 224 0.9 6.1 0.07 0.11 0.10 89 1009.6
20260506204008 52 218 1.7 6.1 0.07 0.11 0.09 89 1009.6
20260506203508 52 253 2.6 6.1 0.07 0.11 0.08 89 1009.6
20260506203021 52 221 2.6 7.8 0.06 0.11 0.07 89 1009.6
20260506203011 53 227 5.2 8.7 0.03 0.05 0.04 90 1009.1
20260506202508 52 213 2.6 7.8 0.05 0.11 0.07 89 1009.6
20260506202008 52 238 3.5 8.7 0.04 0.11 0.06 89 1009.6
20260506201530 52 148 4.3 8.7 0.04 0.11 0.05 89 1009.6
20260506201008 52 248 3.5 8.7 0.03 0.11 0.04 89 1009.5
20260506200509 53 251 2.6 8.7 0.03 0.10 0.03 89 1009.5
20260506200025 53 248 2.6 5.2 0.03 0.10 0.03 89 1009.5
20260506200010 54 229 5.2 10.4 0.02 0.09 0.02 89 1008.7
20260506195509 53 249 1.7 6.1 0.02 0.09 0.03 89 1009.5
20260506195003 53 245 1.7 6.1 0.02 0.09 0.03 89 1009.4
20260506194510 53 234 1.7 7.8 0.01 0.09 0.02 88 1009.3
20260506194009 53 207 2.6 7.8 0.01 0.09 0.02 88 1009.2
20260506193504 53 248 2.6 6.1 0.00 0.08 0.01 88 1009.1
20260506193023 53 237 1.7 6.1 0.00 0.08 0.01 88 1009.0
20260506193010 54 212 1.7 10.4 0.00 0.07 0.01 87 1008.3
20260506192508 53 224 1.7 5.2 0.00 0.08 0.01 88 1008.9
20260506192010 54 213 1.7 5.2 0.00 0.08 0.01 88 1008.9
20260506191524 54 229 1.7 5.2 0.00 0.07 0.00 88 1008.9
20260506191007 54 243 1.7 6.1 0.00 0.07 0.00 87 1008.9
20260506190511 54 208 0.9 7.8 0.00 0.08 0.00 87 1008.8
20260506190028 54 210 2.6 7.8 0.00 0.08 0.00 87 1008.8
20260506185510 54 244 0.9 8.7 0.00 0.08 0.00 86 1008.7
20260506185011 54 214 2.6 8.7 0.00 0.08 0.00 86 1008.7
20260506184527 54 221 3.5 8.7 0.00 0.08 0.00 86 1008.7
20260506184009 55 219 1.7 7.8 0.00 0.08 0.00 86 1008.6
20260506183510 55 251 1.7 6.1 0.00 0.08 0.00 85 1008.5
20260506183013 55 226 2.6 6.1 0.00 0.08 0.00 85 1008.4
20260506182504 55 249 0.9 5.2 0.00 0.08 0.00 85 1008.3
20260506182006 55 213 1.7 6.1 0.00 0.08 0.00 85 1008.3
20260506181519 55 239 0.9 6.1 0.00 0.08 0.00 85 1008.3
20260506181008 55 127 0.9 3.5 0.00 0.08 0.00 85 1008.3
20260506180508 55 213 0.0 1.7 0.00 0.08 0.00 85 1008.3
20260506180025 55 219 0.0 0.9 0.00 0.08 0.00 86 1008.2
20260506180014 56 235 1.7 2.6 0.00 0.09 0.01 86 1007.3
20260506175512 55 219 0.0 1.7 0.00 0.08 0.00 86 1008.1
20260506175008 55 219 0.0 2.6 0.00 0.08 0.00 85 1008.0
20260506174528 55 228 0.9 2.6 0.00 0.08 0.00 85 1007.9
20260506174010 55 212 0.0 1.7 0.00 0.08 0.00 86 1007.8
20260506173510 55 231 0.9 4.3 0.00 0.08 0.00 85 1007.8
20260506173028 55 245 0.9 4.3 0.00 0.08 0.00 85 1007.7
20260506173014 56 221 1.7 6.1 0.00 0.09 0.01 86 1006.9
20260506172509 56 239 0.9 4.3 0.00 0.08 0.00 85 1007.6
20260506172009 56 124 0.9 2.6 0.00 0.08 0.00 85 1007.5
20260506171539 56 110 0.9 3.5 0.00 0.08 0.00 85 1007.5
20260506171005 56 231 0.9 3.5 0.00 0.08 0.00 85 1007.4
20260506170511 56 224 0.9 5.2 0.00 0.08 0.00 85 1007.5
20260506170020 56 217 1.7 5.2 0.00 0.08 0.00 84 1007.4
20260506170014 57 241 1.7 6.1 0.00 0.09 0.01 85 1006.9
20260506165508 56 270 0.9 4.3 0.00 0.08 0.00 85 1007.4
20260506165009 57 255 1.7 4.3 0.00 0.08 0.00 84 1007.3
20260506164524 56 264 0.0 2.6 0.00 0.08 0.00 85 1007.4
20260506164010 56 281 0.0 3.5 0.00 0.08 0.00 85 1007.4
20260506163510 56 239 0.9 4.3 0.00 0.08 0.00 85 1007.4
20260506163027 56 13 0.0 4.3 0.00 0.08 0.00 85 1007.4
20260506163013 57 82 1.7 10.4 0.00 0.09 0.01 84 1007.0
20260506162509 56 230 0.9 3.5 0.00 0.08 0.00 85 1007.4
20260506162007 57 89 0.9 3.5 0.00 0.08 0.00 85 1007.4
20260506161510 56 252 0.0 7.8 0.00 0.08 0.00 85 1007.4
20260506161005 56 120 0.9 7.8 0.00 0.08 0.00 84 1007.4
20260506160507 57 206 0.9 8.7 0.00 0.08 0.00 84 1007.4
20260506160016 57 204 2.6 8.7 0.00 0.08 0.00 83 1007.5
20260506160013 59 238 5.2 13.0 0.00 0.09 0.01 77 1007.2
20260506155508 57 257 1.7 5.2 0.00 0.08 0.00 83 1007.5
20260506155007 57 228 2.6 5.2 0.00 0.08 0.00 81 1007.5
20260506154521 58 224 0.9 5.2 0.00 0.08 0.00 81 1007.6
20260506154009 58 273 1.7 7.8 0.00 0.08 0.00 80 1007.6
20260506153502 58 266 3.5 8.7 0.00 0.08 0.00 78 1007.5
20260506153004 59 230 1.7 8.7 0.00 0.08 0.00 77 1007.5
20260506152504 60 60 2.6 7.8 0.00 0.08 0.00 76 1007.4
20260506152004 60 237 0.9 7.8 0.00 0.08 0.00 77 1007.3
20260506151508 61 247 0.9 3.5 0.00 0.08 0.00 76 1007.2
20260506151004 61 67 0.0 2.6 0.00 0.09 0.00 76 1007.2
20260506150510 61 231 0.9 3.5 0.00 0.09 0.00 75 1007.1
20260506150013 62 224 0.9 2.6 0.00 0.09 0.01 69 1006.6
20260506150010 61 259 0.9 4.3 0.00 0.09 0.00 74 1007.1
20260506145506 61 217 1.7 4.3 0.00 0.09 0.00 72 1007.1
20260506145007 61 209 0.9 3.5 0.00 0.09 0.00 74 1007.0
20260506144516 62 229 0.9 2.6 0.00 0.09 0.00 72 1006.9
20260506144009 62 258 0.9 2.6 0.00 0.09 0.00 71 1006.9
20260506143507 62 216 0.9 2.6 0.00 0.09 0.00 68 1006.8
20260506143024 62 233 0.9 1.7 0.00 0.09 0.00 67 1006.8
20260506143013 62 235 1.7 4.3 0.00 0.09 0.01 68 1006.6
20260506142509 62 217 0.0 3.5 0.00 0.09 0.00 67 1006.8
20260506142010 62 231 1.7 3.5 0.00 0.09 0.00 67 1006.7
20260506141504 62 227 0.9 1.7 0.00 0.09 0.00 67 1006.8
20260506141004 62 233 0.0 2.6 0.00 0.09 0.00 69 1006.8
20260506140504 62 239 0.9 2.6 0.00 0.09 0.00 68 1006.7
20260506140016 62 228 0.0 1.7 0.00 0.09 0.00 67 1006.7
20260506140012 62 246 0.0 2.6 0.00 0.09 0.01 66 1006.6
20260506135506 62 220 0.9 1.7 0.00 0.09 0.00 67 1006.7
20260506135005 62 250 0.9 1.7 0.00 0.09 0.00 67 1006.8
20260506134514 62 238 0.9 1.7 0.00 0.09 0.00 67 1006.8
20260506134007 62 234 0.0 1.7 0.00 0.09 0.00 67 1006.8
20260506133506 62 236 0.0 1.7 0.00 0.09 0.00 66 1006.8
20260506133027 62 233 0.0 1.7 0.00 0.09 0.00 66 1006.8
20260506133012 65 204 2.6 6.1 0.00 0.09 0.01 64 1006.7
20260506132507 62 162 0.0 3.5 0.00 0.09 0.00 67 1006.8
20260506132007 63 216 1.7 3.5 0.00 0.09 0.00 65 1006.8
20260506131521 63 219 1.7 3.5 0.00 0.09 0.00 65 1006.8
20260506131007 63 226 0.9 3.5 0.00 0.09 0.00 65 1006.7
20260506130508 64 226 0.9 3.5 0.00 0.09 0.00 64 1006.7
20260506130024 64 206 0.9 7.0 0.00 0.09 0.00 63 1006.7
20260506125505 65 233 2.6 7.0 0.00 0.09 0.00 62 1006.7
20260506125005 65 238 0.9 3.5 0.00 0.09 0.00 61 1006.7
20260506124508 65 238 2.6 5.2 0.00 0.09 0.00 62 1006.7
20260506124005 65 212 2.6 5.2 0.00 0.09 0.00 62 1006.7
20260506123506 66 264 0.9 7.0 0.00 0.09 0.00 60 1006.7
20260506123016 66 240 1.7 7.0 0.00 0.09 0.00 61 1006.7
20260506123012 67 78 3.5 7.8 0.00 0.09 0.01 61 1006.8
20260506122508 66 248 2.6 7.0 0.00 0.09 0.00 61 1006.7
20260506122014 65 231 1.7 6.1 0.00 0.09 0.00 60 1006.7
20260506121518 66 62 1.7 6.1 0.00 0.09 0.00 60 1006.7
20260506121007 66 261 1.7 6.1 0.00 0.09 0.00 59 1006.6
20260506120508 67 229 3.5 8.7 0.00 0.09 0.00 60 1006.7
20260506120027 67 326 1.7 8.7 0.00 0.09 0.00 63 1006.6
20260506120012 65 359 2.6 8.7 0.00 0.09 0.01 66 1006.8
20260506115507 66 44 1.7 6.1 0.00 0.09 0.00 60 1006.6
20260506115009 66 34 1.7 6.1 0.00 0.09 0.00 62 1006.6
20260506114534 66 18 2.6 4.3 0.00 0.09 0.00 64 1006.6
20260506114003 66 243 1.7 5.2 0.00 0.09 0.00 63 1006.7
20260506113505 65 309 0.9 5.2 0.00 0.09 0.00 67 1006.8
20260506113011 65 262 1.7 6.1 0.00 0.09 0.00 64 1006.8
20260506112510 65 198 1.7 7.0 0.00 0.09 0.00 65 1006.9
20260506112007 64 235 1.7 7.0 0.00 0.09 0.00 66 1007.0
20260506111516 64 205 2.6 6.1 0.00 0.09 0.00 64 1007.1
20260506111010 63 262 2.6 6.1 0.00 0.09 0.00 68 1007.2
20260506110512 63 214 0.9 6.1 0.00 0.09 0.00 69 1007.2
20260506110021 62 243 2.6 5.2 0.00 0.09 0.00 68 1007.3
20260506110011 65 225 6.1 10.4 0.00 0.09 0.01 64 1007.5
20260506105513 63 238 1.7 5.2 0.00 0.09 0.00 67 1007.3
20260506105008 63 260 2.6 6.1 0.00 0.09 0.00 67 1007.4
20260506104525 64 207 1.7 6.1 0.00 0.09 0.00 66 1007.3
20260506104008 64 217 0.9 6.1 0.00 0.09 0.00 68 1007.3
20260506103514 64 265 2.6 6.1 0.00 0.09 0.00 66 1007.3
20260506103029 65 219 2.6 7.8 0.00 0.09 0.00 64 1007.3
20260506103011 64 2 2.6 8.7 0.00 0.09 0.01 70 1007.5
20260506102512 64 245 3.5 7.8 0.00 0.09 0.00 67 1007.3
20260506102007 64 250 1.7 5.2 0.00 0.09 0.00 68 1007.3
20260506101517 64 221 1.7 6.1 0.00 0.09 0.00 67 1007.3
20260506101007 64 297 1.7 6.1 0.00 0.09 0.00 67 1007.3
20260506100507 64 36 0.9 5.2 0.00 0.09 0.00 66 1007.3
20260506100024 64 293 0.9 5.2 0.00 0.09 0.00 70 1007.3
20260506100011 64 224 1.7 8.7 0.00 0.09 0.01 71 1007.5
20260506095508 64 225 1.7 8.7 0.00 0.09 0.00 67 1007.3
20260506095009 63 211 2.6 8.7 0.00 0.09 0.00 68 1007.3
20260506094522 64 266 1.7 8.7 0.00 0.09 0.00 68 1007.3
20260506094008 64 25 2.6 8.7 0.00 0.09 0.00 66 1007.3
20260506093509 64 238 2.6 5.2 0.00 0.09 0.00 68 1007.4
20260506093023 63 200 1.7 6.1 0.00 0.09 0.00 71 1007.3
20260506093011 62 231 4.3 8.7 0.00 0.09 0.01 73 1007.6
20260506092511 62 235 2.6 6.1 0.00 0.09 0.00 70 1007.4
20260506092010 61 226 3.5 7.8 0.00 0.09 0.00 71 1007.5
20260506091528 61 224 3.5 7.8 0.00 0.09 0.00 72 1007.5
20260506091010 61 268 1.7 7.0 0.00 0.09 0.00 73 1007.5
20260506090508 61 227 2.6 5.2 0.00 0.09 0.00 72 1007.5
20260506090016 61 214 1.7 6.1 0.00 0.09 0.00 74 1007.5
20260506090010 62 222 5.2 12.2 0.00 0.09 0.01 75 1007.6
20260506085506 61 236 3.5 7.0 0.00 0.09 0.00 72 1007.5
20260506085007 62 259 3.5 7.0 0.00 0.09 0.00 73 1007.5
20260506084518 61 244 2.6 6.1 0.00 0.09 0.00 73 1007.5
20260506084008 61 241 2.6 7.0 0.00 0.09 0.00 73 1007.5
20260506083508 61 224 2.6 7.0 0.00 0.09 0.00 74 1007.4
20260506083024 62 236 0.9 7.0 0.00 0.09 0.00 76 1007.3
20260506083015 60 239 4.3 10.4 0.00 0.09 0.01 81 1007.2
20260506082509 61 240 2.6 7.0 0.00 0.09 0.00 77 1007.4
20260506082009 61 219 3.5 7.0 0.00 0.09 0.00 78 1007.3
20260506081525 60 212 2.6 7.0 0.00 0.09 0.00 80 1007.2
20260506081010 60 221 2.6 7.0 0.00 0.09 0.00 80 1007.1
20260506080509 59 240 3.5 8.7 0.00 0.09 0.00 80 1007.1
20260506073507 58 193 1.7 4.3 0.00 0.09 0.00 82 1007.2
20260506073023 58 233 1.7 5.2 0.00 0.09 0.00 83 1007.2
20260506073015 59 241 3.5 6.1 0.00 0.09 0.01 83 1007.4
20260506072509 58 219 2.6 5.2 0.00 0.09 0.00 82 1007.2
20260506072008 58 238 0.9 3.5 0.00 0.09 0.00 83 1007.2
20260506071505 58 3 0.9 3.5 0.00 0.09 0.00 83 1007.3
20260506071004 58 265 0.9 3.5 0.00 0.09 0.00 84 1007.3
20260506070508 58 184 1.7 3.5 0.00 0.09 0.00 83 1007.3
20260506062508 58 82 0.0 0.9 0.00 0.09 0.00 83 1007.3
20260506062007 58 128 0.0 0.9 0.00 0.09 0.00 83 1007.4
20260506061515 59 127 0.0 0.9 0.00 0.09 0.00 84 1007.3
20260506061004 58 138 0.0 1.7 0.00 0.09 0.00 86 1007.3
20260506060505 57 138 0.0 1.7 0.00 0.09 0.00 87 1007.3
20260506051008 50 218 0.0 0.0 0.00 0.09 0.00 93 1007.7
20260506050505 49 218 0.0 0.0 0.00 0.09 0.00 93 1007.6
20260506045004 48 218 0.0 0.0 0.00 0.09 0.00 93 1007.5
20260506044515 48 218 0.0 0.9 0.00 0.09 0.00 93 1007.5
20260506044003 48 218 0.0 0.9 0.00 0.09 0.00 93 1007.5
20260506043505 48 218 0.0 0.0 0.00 0.09 0.00 92 1007.5
20260506043015 48 218 0.0 0.0 0.00 0.09 0.00 92 1007.5
20260506042507 48 218 0.0 0.0 0.00 0.09 0.00 92 1007.5
20260506042007 48 218 0.0 0.0 0.00 0.09 0.00 93 1007.5
20260506041519 48 218 0.0 0.0 0.00 0.08 0.00 93 1007.4